This is the latest recevied weather packets stored in our database for station/object DH1NAI-6. If no packets are shown the sender has not sent any weather packets the latest 10 day(s).
| Time | Temp. | Humidity | Pressure | Rain* | Wind** | Luminosity | Snow |
|---|---|---|---|---|---|---|---|
| 1787535272 | 2.78° C | 99% | 1020.5 hPa | 0 mm | - | 0 W/m² | - |
| 1787534663 | 2.22° C | 99% | 1020.3 hPa | 0 mm | - | 0 W/m² | - |
| 1787534039 | 2.78° C | 99% | 1020.2 hPa | 0 mm | - | 0 W/m² | - |
| 1787533415 | 2.78° C | 99% | 1020.2 hPa | 0 mm | - | 0 W/m² | - |
| 1787532807 | 2.78° C | 99% | 1020.3 hPa | 0 mm | - | 0 W/m² | - |
| 1787532199 | 2.78° C | 99% | 1020.4 hPa | 0 mm | - | 0 W/m² | - |
| 1787531591 | 2.78° C | 99% | 1020.4 hPa | 0 mm | - | 0 W/m² | - |
| 1787530984 | 2.78° C | 99% | 1020.3 hPa | 0 mm | - | 0 W/m² | - |
| 1787530375 | 3.33° C | 99% | 1020.5 hPa | 0 mm | - | 0 W/m² | - |
| 1787529768 | 3.33° C | 99% | 1020.4 hPa | 0 mm | - | 0 W/m² | - |
| 1787529152 | 3.33° C | 99% | 1020.5 hPa | 0 mm | - | 0 W/m² | - |
| 1787528551 | 2.78° C | 99% | 1020.6 hPa | 0 mm | - | 0 W/m² | - |
| 1787527943 | 3.33° C | 99% | 1020.6 hPa | 0 mm | - | 0 W/m² | - |
| 1787527335 | 3.33° C | 99% | 1020.7 hPa | 0 mm | - | 0 W/m² | - |
| 1787526727 | 3.33° C | 99% | 1020.8 hPa | 0 mm | - | 0 W/m² | - |
| 1787526119 | 3.33° C | 99% | 1020.8 hPa | 0 mm | - | 0 W/m² | - |
| 1787525511 | 3.89° C | 99% | 1020.8 hPa | 0 mm | - | 0 W/m² | - |
| 1787524903 | 3.89° C | 99% | 1020.8 hPa | 0 mm | - | 0 W/m² | - |
| 1787524292 | 3.89° C | 99% | 1020.8 hPa | 0 mm | - | 0 W/m² | - |
| 1787523687 | 4.44° C | 99% | 1020.7 hPa | 0 mm | - | 0 W/m² | - |
| 1787523079 | 4.44° C | 99% | 1020.5 hPa | 0 mm | - | 0 W/m² | - |
| 1787522471 | 4.44° C | 99% | 1020.8 hPa | 0 mm | - | 0 W/m² | - |
| 1787521863 | 5° C | 99% | 1020.5 hPa | 0 mm | - | 0 W/m² | - |
| 1787521255 | 5° C | 99% | 1020.6 hPa | 0 mm | - | 0 W/m² | - |
| 1787520647 | 5° C | 99% | 1020.6 hPa | 0 mm | - | 0 W/m² | - |
* Rain latest hour (hover to see other rain measurements)
** Current wind speed in m/s (hover to see current wind gust speed)